Wind_Speed
7 7 7 7 6 6 5 4 3 3 4 3 3 2 2 1 1 0 0 1 2 3 3 4 5 5 5 6 6 7 7 7 8 8 8 8 8 9 9 10 9 8 8
9 7 7 6 6 5 4 4 3 3 3 2 2 2 1 1 1 1 2 2 2 3 3 4 4 5 6 6 7 8 8 8 8 8 8 8 8 8 8 9 9 9 9
9 8 7 7 6 6 4 4 3 4 3 2 2 1 1 1 1 2 3 3 3 4 4 4 5 5 6 6 7 8 8 9 8 8 8 9 8 8 8 10 10 10 10
8 7 6 7 7 7 6 5 4 4 4 3 3 2 1 2 2 2 3 3 4 4 5 5 5 6 7 7 8 8 8 9 9 9 9 9 8 9 8 9 10 10 11
6 6 5 5 6 6 5 6 4 4 4 4 3 3 2 2 2 3 4 4 5 5 5 6 6 7 8 9 9 9 9 9 9 9 9 9 9 9 9 9 10 10 11
5 4 4 4 4 4 4 4 4 4 4 3 4 4 3 3 3 4 5 5 6 6 6 7 7 8 9 10 11 10 10 10 10 9 10 10 10 10 10 10 11 11 11
3 4 3 3 3 2 2 2 2 2 2 3 3 4 4 4 5 5 5 6 7 7 7 7 7 8 10 11 11 12 11 11 10 10 11 11 10 10 10 11 11 11 11
3 3 3 2 2 2 2 2 2 2 2 2 4 4 4 4 5 5 6 7 7 7 8 8 8 9 10 11 11 12 12 12 12 12 12 13 12 12 11 11 12 11 11
3 3 3 3 2 2 2 2 3 3 3 3 4 4 5 5 6 6 7 7 8 8 9 8 9 10 11 12 12 13 13 13 14 14 14 14 14 14 13 13 12 12 13
4 4 4 4 4 4 4 4 5 5 4 4 5 6 6 6 6 7 7 8 9 10 10 11 11 12 14 15 15 15 15 15 14 14 14 14 14 15 15 14 14 14 14
5 5 6 6 6 6 6 6 6 6 6 6 7 7 7 7 8 8 8 9 10 11 12 13 14 14 15 16 17 17 17 16 15 15 15 15 15 15 15 16 15 15 14
7 7 7 7 8 8 8 8 8 8 8 9 9 9 9 10 10 10 11 11 11 12 13 14 15 16 17 17 17 17 17 17 16 16 16 16 16 16 16 16 17 16 15
9 9 9 9 10 10 10 10 10 11 11 11 11 11 12 12 12 12 13 13 13 14 14 15 16 17 18 17 17 18 18 17 17 17 17 17 16 17 17 16 16 17 16
12 12 12 12 12 12 12 12 13 13 14 14 13 13 13 13 14 14 15 15 15 15 16 17 17 18 18 18 18 19 18 17 17 18 18 18 18 18 18 17 17 17 17
14 14 14 15 15 15 15 15 15 15 15 15 15 15 15 15 16 16 17 17 17 17 17 18 19 19 19 19 19 19 19 18 18 18 18 19 18 18 18 19 19 19 19
16 16 16 16 16 17 18 18 17 17 17 16 16 16 17 17 17 17 17 17 18 18 18 18 19 20 21 20 20 20 20 20 20 20 20 20 20 19 19 20 20 20 21
17 17 17 17 18 18 19 19 18 18 18 17 18 18 18 18 18 18 19 19 20 20 20 19 20 21 22 22 22 22 22 21 21 21 21 21 20 20 20 20 21 21 21
17 17 18 18 19 19 20 20 19 19 19 19 19 19 19 19 19 20 21 21 21 21 21 21 21 21 22 23 22 23 22 22 21 22 22 22 22 21 21 21 21 21 22
19 19 20 20 21 21 21 21 21 20 20 20 21 20 21 21 21 22 22 23 23 23 22 22 22 22 23 23 23 23 23 23 22 22 22 22 22 22 22 22 22 21 21
21 22 22 22 22 22 22 23 22 22 22 22 22 22 22 22 22 23 23 23 24 24 24 24 24 24 24 24 24 24 23 23 23 23 23 23 23 23 22 22 22 22 21
22 23 24 24 24 24 24 24 24 23 23 23 24 24 24 24 24 24 24 24 24 25 25 25 25 25 25 25 25 25 24 24 24 24 24 24 24 23 23 23 23 23 23
23 24 25 25 25 25 25 25 26 25 25 25 25 25 26 26 26 25 25 26 26 26 26 26 26 26 26 26 26 26 26 25 25 25 25 25 25 24 24 24 24 24 23
25 25 25 25 25 26 25 25 26 26 26 26 26 27 27 28 28 27 27 27 27 27 27 27 27 27 27 27 27 26 27 27 27 27 27 26 26 26 26 25 25 25 24
27 26 26 26 27 27 26 27 27 26 26 26 27 27 28 29 29 28 28 27 27 28 28 28 28 28 28 28 28 28 28 28 28 28 28 27 27 27 27 27 26 26 25
28 28 28 27 27 27 28 27 27 27 27 27 27 28 28 29 29 29 29 28 28 29 30 30 30 30 30 30 30 30 29 29 29 29 28 28 28 27 27 27 28 28 28
29 29 29 28 28 28 28 28 29 29 28 28 28 28 29 29 30 30 30 30 29 30 31 31 31 31 31 31 31 30 30 30 30 30 29 29 29 28 27 27 28 28 29
Wind_Direction
89 89 90 81 75 82 82 76 86 93 92 88 90 93 81 49 37 44 340 293 282 278 276 283 290 292 296 302 304 302 301 302 303 303 302 295 284 279 278 273 270 270 268
69 69 70 67 62 64 65 67 75 78 70 67 65 70 69 32 45 330 304 294 310 303 297 294 295 298 299 304 307 308 303 305 307 305 304 299 295 285 279 276 269 269 268
72 70 67 64 57 57 51 49 60 55 52 49 39 30 34 21 352 325 320 320 319 318 319 310 301 299 303 307 312 313 311 309 308 308 304 303 301 290 282 274 268 266 265
64 65 65 62 57 53 51 55 58 51 45 41 29 19 13 350 328 315 313 314 320 319 307 306 308 307 311 308 307 310 308 307 307 306 304 302 296 291 286 276 269 268 266
54 55 55 54 51 54 57 59 56 50 47 41 24 1 343 335 313 302 305 312 308 311 308 303 305 307 309 307 305 304 306 306 306 303 301 297 294 290 286 280 273 270 269
46 42 42 45 49 50 44 40 41 40 40 33 18 6 354 335 320 313 313 316 310 307 307 304 300 300 305 306 308 308 306 305 304 299 295 294 292 290 285 278 276 273 270
30 22 23 35 35 33 30 22 25 27 27 12 3 357 351 342 336 329 320 319 315 312 313 306 303 303 304 306 307 308 307 309 306 298 292 289 289 289 284 278 276 271 268
359 2 13 14 8 6 1 358 2 5 5 352 344 341 343 341 333 328 326 325 320 317 316 313 307 312 308 308 308 310 308 308 304 301 293 288 286 287 286 282 279 275 270
340 342 340 331 320 317 329 334 327 324 316 321 324 330 331 331 323 320 320 319 318 315 313 314 315 311 309 310 311 310 308 307 305 301 296 293 290 287 282 283 276 273 275
316 320 316 309 300 293 294 300 305 306 303 299 302 309 314 315 312 309 312 311 311 311 311 312 310 309 309 308 310 306 305 303 301 297 294 291 289 288 286 282 277 274 273
302 299 299 298 293 289 286 286 288 293 293 292 294 298 300 301 302 303 305 306 305 306 307 307 307 308 309 308 309 308 302 299 299 294 292 289 287 285 282 278 275 274 271
298 292 291 292 291 287 285 283 280 283 287 288 290 293 294 295 295 298 299 301 302 303 305 305 307 309 310 309 309 308 305 303 299 296 294 291 288 285 281 280 274 273 271
293 290 287 286 287 286 283 280 277 278 283 286 288 288 288 290 291 292 294 296 298 298 300 304 305 308 308 309 309 308 306 305 302 300 297 293 291 288 283 280 278 274 274
289 288 285 283 284 285 283 280 278 278 280 283 285 285 286 287 288 290 292 294 296 298 300 302 302 304 305 306 306 306 305 302 302 301 302 298 292 290 289 285 279 277 278
283 284 283 283 284 282 280 280 280 280 282 283 282 282 283 285 287 289 291 293 294 294 297 299 301 301 303 305 305 304 301 299 299 300 300 300 295 290 289 287 283 279 276
285 283 282 282 283 282 280 279 281 279 279 281 282 282 281 283 287 290 291 293 294 295 295 296 297 298 299 300 303 303 299 296 296 296 297 297 293 293 290 289 285 281 278
284 284 283 283 282 282 282 280 281 281 280 280 281 282 282 285 287 288 290 292 292 294 293 294 294 296 297 298 300 303 300 296 294 293 294 294 292 290 291 289 286 283 279
286 287 289 288 289 288 284 281 281 281 279 279 280 281 283 284 286 288 289 289 291 293 293 293 294 294 296 297 298 299 301 299 295 293 292 291 291 291 291 289 286 284 281
285 286 288 290 290 288 283 280 278 278 278 278 279 280 282 283 286 287 287 288 290 291 293 293 292 293 293 294 296 297 298 299 296 294 293 292 292 290 291 290 287 284 281
285 286 287 288 289 289 284 281 279 278 278 279 279 278 279 281 283 285 286 288 289 289 291 292 292 291 292 293 295 296 296 296 296 296 295 294 292 290 290 290 289 285 282
286 287 286 287 288 289 286 284 280 278 277 278 278 278 279 280 282 283 285 287 287 288 290 291 292 291 291 292 294 294 294 294 294 294 294 294 292 289 288 288 288 286 283
289 288 288 287 286 286 285 284 282 281 281 279 278 278 279 280 281 282 283 285 286 287 288 290 290 290 291 290 292 292 292 292 292 292 291 291 290 288 287 287 286 284 283
289 290 289 286 284 285 287 286 285 282 282 280 278 278 278 279 280 282 283 284 285 286 287 288 288 289 290 290 291 292 292 291 290 290 290 291 290 287 286 285 284 283 283
289 289 287 287 285 284 287 286 284 282 281 281 280 280 279 278 280 281 281 283 285 286 287 286 287 288 288 288 289 290 291 290 290 289 289 290 290 288 285 284 283 281 282
288 288 288 288 288 286 287 287 284 282 281 281 282 282 281 280 279 280 282 282 283 284 285 286 286 286 287 287 288 288 289 290 290 290 289 289 289 289 287 285 283 282 281
287 288 287 287 287 286 285 285 284 283 283 282 282 282 282 281 279 280 282 282 282 284 285 286 286 286 287 287 288 289 289 289 290 290 290 289 288 288 289 287 285 283 281
Height
5876 5876 5876 5876 5876 5876 5876 5876 5876 5877 5877 5878 5878 5878 5879 5879 5879 5879 5879 5879 5879 5879 5878 5878 5878 5877 5877 5876 5876 5875 5874 5873 5873 5872 5871 5870 5869 5869 5868 5868 5868 5868 5868
5878 5878 5878 5878 5878 5877 5877 5877 5877 5877 5878 5878 5878 5879 5879 5879 5879 5879 5879 5878 5878 5878 5877 5877 5877 5876 5876 5875 5874 5874 5873 5872 5871 5870 5869 5868 5867 5866 5866 5866 5865 5866 5866
5880 5880 5880 5879 5879 5878 5878 5878 5878 5878 5878 5878 5878 5878 5879 5879 5879 5878 5878 5878 5878 5877 5877 5876 5876 5876 5875 5874 5873 5873 5872 5870 5869 5868 5867 5866 5865 5864 5864 5863 5863 5863 5863
5882 5881 5881 5880 5880 5880 5879 5879 5879 5879 5879 5879 5878 5878 5878 5878 5878 5878 5878 5878 5877 5877 5876 5875 5875 5874 5874 5873 5872 5871 5870 5869 5868 5866 5865 5864 5863 5863 5862 5861 5861 5861 5861
5883 5883 5882 5881 5881 5881 5880 5880 5880 5879 5879 5879 5879 5878 5878 5878 5878 5877 5877 5877 5876 5876 5875 5874 5874 5873 5872 5871 5870 5869 5868 5866 5865 5864 5863 5862 5861 5860 5860 5859 5858 5858 5858
5883 5883 5882 5882 5881 5881 5881 5880 5880 5879 5879 5879 5879 5878 5878 5877 5877 5876 5876 5876 5875 5875 5874 5873 5872 5871 5870 5869 5868 5867 5865 5864 5863 5861 5861 5860 5859 5858 5857 5856 5856 5855 5854
5884 5883 5882 5882 5882 5881 5881 5880 5880 5879 5879 5879 5878 5878 5877 5877 5876 5876 5875 5874 5874 5873 5872 5871 5870 5869 5868 5867 5866 5864 5863 5861 5860 5859 5858 5857 5856 5855 5854 5853 5852 5852 5851
5884 5883 5882 5882 5881 5881 5880 5880 5880 5879 5879 5879 5878 5877 5877 5877 5875 5874 5874 5873 5872 5871 5871 5870 5868 5867 5866 5864 5863 5862 5860 5858 5857 5856 5855 5853 5852 5852 5851 5850 5849 5848 5848
5883 5883 5882 5882 5881 5880 5880 5879 5879 5878 5878 5878 5877 5877 5876 5875 5874 5873 5872 5871 5870 5869 5868 5867 5866 5865 5863 5861 5860 5859 5857 5856 5854 5853 5851 5849 5849 5848 5847 5846 5845 5844 5844
5882 5882 5881 5881 5880 5880 5879 5878 5877 5877 5876 5876 5875 5874 5874 5873 5872 5872 5871 5870 5868 5867 5866 5865 5863 5862 5860 5859 5857 5855 5854 5852 5851 5849 5847 5845 5844 5844 5843 5841 5841 5841 5841
5881 5881 5880 5880 5879 5878 5877 5877 5876 5875 5874 5874 5873 5872 5871 5871 5870 5869 5868 5868 5866 5865 5863 5862 5860 5859 5857 5855 5854 5852 5850 5848 5846 5845 5843 5842 5840 5839 5838 5837 5837 5837 5837
5880 5879 5878 5878 5877 5876 5875 5874 5874 5873 5872 5871 5871 5870 5869 5868 5867 5867 5866 5865 5864 5862 5860 5859 5857 5855 5854 5852 5850 5848 5846 5844 5842 5841 5839 5838 5836 5835 5834 5833 5832 5832 5832
5878 5877 5876 5875 5874 5874 5873 5872 5871 5870 5870 5869 5868 5867 5866 5865 5864 5864 5863 5862 5861 5859 5858 5856 5854 5852 5850 5848 5846 5844 5842 5840 5838 5836 5835 5833 5832 5831 5830 5829 5828 5828 5827
5875 5874 5873 5872 5872 5871 5870 5869 5868 5867 5866 5865 5864 5863 5862 5862 5861 5860 5859 5858 5857 5855 5854 5852 5850 5847 5845 5844 5842 5840 5837 5835 5834 5832 5830 5829 5827 5826 5825 5824 5824 5823 5823
5872 5871 5870 5869 5868 5867 5866 5865 5864 5863 5862 5861 5860 5859 5858 5857 5856 5855 5854 5853 5852 5851 5850 5848 5845 5843 5841 5839 5837 5835 5833 5831 5829 5827 5826 5824 5822 5821 5820 5819 5819 5818 5818
5869 5868 5866 5865 5864 5863 5862 5861 5860 5859 5858 5857 5856 5855 5853 5852 5851 5850 5849 5848 5847 5846 5845 5843 5841 5839 5837 5835 5833 5830 5828 5826 5824 5822 5821 5819 5818 5816 5815 5814 5813 5812 5812
5864 5863 5862 5861 5859 5858 5857 5856 5855 5854 5853 5852 5851 5850 5848 5847 5846 5845 5844 5842 5841 5840 5839 5838 5836 5834 5832 5830 5828 5825 5823 5821 5819 5817 5816 5814 5812 5811 5810 5808 5807 5807 5806
5859 5858 5857 5856 5854 5853 5852 5851 5850 5848 5847 5846 5845 5844 5843 5842 5841 5839 5838 5836 5835 5834 5832 5831 5830 5828 5826 5824 5822 5820 5817 5815 5813 5812 5810 5808 5806 5805 5804 5802 5801 5800 5799
5854 5853 5852 5851 5849 5848 5846 5845 5844 5843 5842 5841 5840 5838 5837 5836 5834 5833 5832 5830 5829 5828 5826 5825 5823 5821 5820 5818 5816 5814 5812 5809 5808 5806 5804 5802 5800 5799 5797 5796 5795 5794 5793
5849 5848 5846 5845 5844 5842 5840 5839 5838 5837 5836 5835 5833 5832 5831 5829 5828 5827 5826 5824 5823 5821 5820 5818 5816 5815 5813 5811 5809 5807 5805 5803 5801 5799 5798 5796 5794 5793 5791 5790 5789 5788 5787
5843 5842 5840 5839 5837 5836 5834 5832 5831 5830 5829 5828 5826 5825 5824 5823 5821 5820 5819 5817 5816 5814 5813 5811 5809 5808 5806 5804 5802 5800 5799 5797 5795 5793 5791 5789 5788 5786 5785 5784 5782 5781 5780
5836 5835 5833 5832 5830 5828 5827 5825 5824 5822 5821 5820 5819 5818 5816 5815 5814 5812 5811 5810 5809 5807 5805 5804 5802 5800 5798 5796 5795 5793 5791 5790 5788 5786 5784 5783 5781 5779 5778 5777 5775 5774 5773
5830 5828 5826 5825 5823 5821 5819 5817 5816 5814 5813 5812 5811 5810 5809 5807 5806 5805 5803 5802 5800 5799 5797 5796 5794 5792 5791 5789 5787 5785 5783 5781 5780 5778 5776 5775 5773 5772 5771 5769 5768 5767 5766
5823 5821 5819 5817 5815 5814 5812 5810 5808 5806 5805 5804 5803 5801 5800 5799 5798 5797 5795 5794 5792 5791 5789 5788 5786 5785 5783 5781 5779 5777 5776 5774 5772 5770 5769 5768 5766 5764 5763 5761 5760 5759 5758
5815 5813 5811 5810 5808 5806 5804 5802 5800 5798 5797 5796 5794 5793 5792 5791 5790 5788 5787 5786 5784 5782 5780 5779 5777 5776 5774 5772 5770 5769 5767 5766 5764 5762 5760 5759 5758 5756 5755 5753 5752 5751 5749
5807 5805 5804 5802 5800 5798 5796 5794 5792 5790 5789 5787 5786 5784 5783 5782 5780 5779 5778 5777 5776 5774 5772 5770 5769 5767 5765 5763 5762 5760 5758 5757 5755 5754 5752 5750 5749 5747 5747 5745 5743 5742 5741